Location: The Saddle
(36.8333°N, 80.3417°W)
Time: 18:45:44
(UTC-04:00)

RS-44 - Visible Passes

Search period start: 31 March 2023 00:00
Search period end: 10 April 2023 00:00
Orbit: 1174 x 1511 km, 82.5° (Epoch: 31 March)

Date Brightness Start Highest point End Pass type
(mag) Time Alt. Az. Time Alt. Az. Time Alt. Az.
31 Mar ? 01:20:27 10° NNE 01:24:41 21° NE 01:24:41 21° NE visible
31 Mar ? 03:12:25 10° NNW 03:17:16 40° NNW 03:17:16 40° NNW visible
01 Apr ? 01:43:20 10° N 01:48:14 30° NE 01:48:14 30° NE visible
01 Apr ? 03:36:29 10° NNW 03:40:49 32° NW 03:40:49 32° NW visible
02 Apr ? 02:06:40 10° N 02:11:49 39° NNE 02:11:49 39° NNE visible
02 Apr ? 04:00:55 10° NNW 04:04:24 22° NW 04:04:24 22° NW visible
03 Apr ? 00:39:32 10° NNE 00:42:50 15° NE 00:42:50 15° NE visible
03 Apr ? 02:30:17 10° N 02:35:25 43° N 02:35:25 43° N visible
03 Apr ? 04:26:01 10° NW 04:28:00 14° NW 04:28:00 14° NW visible
04 Apr ? 01:01:49 10° NNE 01:06:26 23° NE 01:06:26 23° NE visible
04 Apr ? 02:54:09 10° NNW 02:59:01 39° NNW 02:59:01 39° NNW visible
05 Apr ? 01:24:53 10° N 01:30:02 33° NE 01:30:02 33° NE visible
05 Apr ? 03:18:20 10° NNW 03:22:38 30° NW 03:22:38 30° NW visible
06 Apr ? 00:00:45 10° NE 00:01:06 10° ENE 00:01:06 10° ENE visible
06 Apr ? 01:48:18 10° N 01:53:41 42° NNE 01:53:41 42° NNE visible
06 Apr ? 03:42:53 10° NNW 03:46:16 21° NW 03:46:16 21° NW visible
07 Apr ? 00:20:41 10° NNE 00:24:44 18° NE 00:24:44 18° NE visible
07 Apr ? 02:12:00 10° N 02:17:19 44° N 02:17:19 44° N visible
07 Apr ? 04:08:17 10° NW 04:09:55 13° WNW 04:09:55 13° WNW visible
08 Apr ? 00:43:17 10° NNE 00:48:23 27° NE 00:48:23 27° NE visible
08 Apr ? 02:35:57 10° NNW 02:40:59 38° NNW 02:40:59 38° NNW visible
09 Apr ? 01:06:28 10° N 01:12:03 37° NE 01:12:03 37° NE visible
09 Apr ? 03:00:13 10° NNW 03:04:38 28° NW 03:04:38 28° NW visible
09 Apr ? 23:40:26 10° NE 23:43:08 12° ENE 23:43:08 12° ENE visible
